Location: Unspecified
(22.6800°N, 112.2000°E)
Time: 01:01:30
(UTC+08:00)

Courier 1B Rocket - Pass Details

Date: 04 August 2021
Orbit: 920 x 1202 km, 28.3° (Epoch: 17 September)

Event Time Altitude Azimuth Distance (km) Brightness Sun altitude
Rises 20:09:53 0° 196° (SSW) 4,083 8.2 -13.5°
Reaches altitude 10° 20:15:27 10° 165° (SSE) 3,097 7.2 -14.6°
Enters shadow 20:16:54 11° 154° (SSE) 2,999 7.1 -14.9°
